Back to catalog

PSLV R/B

AliveSSO
NORAD 39093·ROCKET BODY·🇮🇳 India

Launched Feb 25, 2013 from Satish Dhawan Space Centre

Loading…

Next Passes (next 24 hours)

TLE

FreshSource: Space-Track

Epoch: Sep 14, 2026, 00:26 UTC

1 39093U 13009H   26257.01831367  .00000202  00000-0  63866-4 0  9995
2 39093  98.0469  95.5632 0044814 123.9764 236.5701 14.48768994715552

Track PSLV R/B in real time with AllMySat

Download on the App Store